Regional Weather Roundup
Issued by NWS Pendleton, OR

Home | Current Version | Previous Version | Text Only | Print | Product List | Glossary On
Versions: 1 2 3 4 5 6 7 8 9 10 11 12 13 14 15 16 17 18 19 20 21 22 23 24 25 26 27 28 29 30 31 32 33 34 35 36 37 38 39 40 41 42 43 44 45 46 47 48 49 50
621
ASUS46 KPDT 252010
RWRPDT
PENDLETON REGIONAL WEATHER ROUNDUP
NATIONAL WEATHER SERVICE PENDLETON OREGON
1200 PM PST SUN FEB 25 2018

NOTE: FAIR INDICATES FEW OR NO CLOUDS BELOW 12,000 FEET WITH NO
SIGNIFICANT WEATHER AND/OR OBSTRUCTIONS TO VISIBILITY.

# INDICATES UNOFFICIAL STATION AND DATA

WAZ520-252110-
EAST SLOPES OF WASHINGTON CASCADES

CITY            SKY/WX      TMP DP  RH  WIND    PRES   REMARKS
#BULLFROG       N/A         33  32  96  W3      N/A
#CLE ELUM HS    N/A         33  32  96  SW3     29.68S
#EASTON DOT     N/A         31  30  96  CALM    N/A
#ELK HTS DOT    N/A         34  34  100 CALM    N/A
#GLENWOOD       N/A         34  32  92  S3      29.85F
#NELSON 3SW     N/A         30  28  92  CALM    29.96S
#NILE           N/A         34  32  92  CALM    29.00F
#TEANAWAY 4NE   N/A         34  32  92  NW3     N/A
#TROUT LAKE 1NE N/A         33  32  96  CALM    29.85F
#TROUT LAKE 1E  N/A         35  33  92  CALM    29.83S
$$

WAZ521-252110-
SIMCOE HIGHLANDS

CITY            SKY/WX      TMP DP  RH  WIND    PRES   REMARKS
#BICKLETON HS   N/A         34  31  89  W35     29.35F WCI 19
#SATUS PASS DOT N/A         32  31  96  N12     N/A    WCI 23
#CENTERVILLE 1SWN/A         39  33  79  SW21    29.81F WCI 29
#GOLDENDALE 1NE N/A         39  23  52  S9      N/A
#GOLDENDALE 4W  N/A         40  27  59  W17     29.84F WCI 31
#GOODNOE HILLS  N/A         43  32  65  W35     29.72F WCI 32
#LYLE 6NE       N/A         39  36  89  W18G26  29.86F WCI 30
#PITT 4SE       N/A         34  32  92  W22G35  29.87F WCI 22
$$

WAZ026-252110-
KITTITAS VALLEY

CITY            SKY/WX      TMP DP  RH  WIND    PRES   REMARKS
ELLENSBURG AP   LGT RAIN    39  34  82  NW12    29.69F WCI 32
#ELLENSBURG CWU N/A         39  34  82  NW3     29.69F
#ELLENSBURG 3NE N/A         36  33  89  N5      27.79F
#ELLENSBURG 1E  N/A         39  33  79  NW1     29.80F
#KITTITAS 3S    N/A         40  34  79  NW8     29.74S
#MANASTASH RDG  N/A         36  36  100 NW8     N/A
#ROCKY CYN DOT  N/A         37  36  96  CALM    N/A
#RYEGRASS DOT   N/A         38  27  64  CALM    N/A
$$

WAZ027-252110-
YAKIMA VALLEY

CITY            SKY/WX      TMP DP  RH  WIND    PRES   REMARKS
SUNNYSIDE AP    MOCLDY      50  29  44  SW26G35 29.76F
YAKIMA AIRPORT  PTCLDY      51  31  46  W16     29.73S
YAKIMA-VAGABOND SUNNY       48  28  46  W18     29.69F WCI 41
#DONALD 2NE     N/A         49   6  17  S14     28.58F WCI 44
#GRANDVIEW      N/A         50  29  44  SW8     29.77F
#MABTON         N/A         50  34  54  W14G26  29.75F
#MOXEE 2E       N/A         38  N/A N/A E3      29.93S
#NACHES 2SW     N/A         43  33  67  W15G31  29.68F WCI 36
#OUTLOOK DOT    N/A         50  29  44  CALM    29.71F
#PARKER DOT     N/A         48  30  49  E14     29.73S WCI 42
#TERRACE HTS    N/A         50  32  50  N3      29.72F
#TOPPENISH      N/A         51  32  48  CALM    29.68F
#I82 S UMTANUM RN/A         44  27  51  SW20    N/A    WCI 36
#UNION GAP DOT  N/A         N/A N/A N/A W9      N/A
#W YAKIMA       N/A         48  31  51  SW7     29.76F
#WHITE SWAN 5E  N/A         49  36  61  NW3G29  29.74F
#WILEY CITY 3W  N/A         45  28  51  CALM    29.69F
#ZILLAH DOT     N/A         50  28  42  W20     N/A
$$

WAZ028-252110-
LOWER COLUMBIA BASIN...WASHINGTON

CITY            SKY/WX      TMP DP  RH  WIND    PRES   REMARKS
PASCO           CLOUDY      50  33  52  SW30G43 29.80F
PROSSER AWOS    N/A         50  32  50  SW22G32 29.79F
RICHLAND AWOS   PTCLDY      52  35  52  SW26G35 29.78F
#BENTON CITY    N/A         48  34  58  SW15    29.67F WCI 42
#CONNELL 5N     N/A         47  35  63  S22G36  29.75F WCI 39
#CONNELL 5NW    N/A         48  36  63  SW24G32 29.70F WCI 40
#ELTOPIA 6NW    N/A         48  35  60  SW10G37 28.71F
#KAHLOTUS       N/A         45  32  60  W37G56  29.76F WCI 34
#KENNEWICK 3S   N/A         48  36  63  SW14G41 29.80F WCI 42
#PATERSON       N/A         49  36  61  NW21G29 29.82F WCI 42
#PROSSER DOT    N/A         49  33  54  SW20G26 29.78S WCI 42
#SAGEMOOR 2W    N/A         49  35  58  SW26G35 29.63F WCI 41
#TOUCHET 2S     N/A         52  35  52  W17G32  29.81F
#WEST PASCO     N/A         52  34  50  CALM    29.76F
$$

WAZ029-252110-
FOOTHILLS OF THE BLUES...WASHINGTON

CITY            SKY/WX      TMP DP  RH  WIND    PRES   REMARKS
WALLA WALLA AP  CLOUDY      47  29  49  SW25G39 29.81F WCI 39
#CLYDE 6NW      N/A         46  32  58  SW20G32 29.79F WCI 38
#DELANEY DOT    N/A         47  26  44  S22G30  29.79F WCI 39
#LOWDEN 2SE     N/A         50  34  54  W29G38  29.78F
#PLEASANT VIEW 1N/A         43  31  62  S23G33  29.83F WCI 34
#PRESCOTT       N/A         47  32  56  CALM    29.80F
#WHITMAN COLLEGEN/A         46  33  60  S14G26  29.89F WCI 40
#WAITSBURG 6SSE N/A         42  28  57  S15     29.67F WCI 34
#WALLA WALLA 5E N/A         45  33  63  SW30G43 N/A    WCI 35
#WHITMAN MISSIONN/A         49  34  56  SE15G30 29.85F WCI 43
$$

WAZ030-252110-
BLUE MOUNTAINS...WASHINGTON

CITY            SKY/WX      TMP DP  RH  WIND    PRES   REMARKS
#DIXIE 5SE      N/A         36  29  75  SW31G47 29.67F WCI 23
$$

ORZ009-041-WAZ024-252110-
COLUMBIA RIVER GORGE

CITY            SKY/WX      TMP DP  RH  WIND    PRES   REMARKS
HOOD RIVER AP   LGT RAIN    43  37  79  CALM    29.86F
THE DALLES AP   CLOUDY      50  36  58  W20     29.85F
#ARLINGTON AIRPON/A         44  37  76  SW24G32 29.82F WCI 35
#ARLINGTON HS   N/A         47  34  60  W14     29.73F WCI 41
#CELILO DOT     N/A         47  33  58  SW5     N/A
#LYLE           N/A         45  39  79  N9      29.88F
#MARYHILL       N/A         45  35  68  N18G37  29.70  WCI 37
#MURDOCK        N/A         44  40  86  W13     29.81F WCI 38
#RUFUS DOT      N/A         47  N/A N/A W16G26  N/A    WCI 41
#SMITHVILLE     N/A         46  40  79  N14G32  29.80F WCI 40

$$

ORZ510-252110-
NORTH CENTRAL OREGON

CITY            SKY/WX      TMP DP  RH  WIND    PRES   REMARKS
#ANTELOPE       N/A         37  32  82  SW20G31 29.81F WCI 27
#CHENOWITH 1W   N/A         38  35  89  W24G31  N/A    WCI 27
#COW CYN RST AREN/A         37  N/A N/A SW17G28 N/A    WCI 27
#DUFUR          N/A         45  33  63  W9      29.84F
#DUFUR 9E       N/A         39  31  73  SW26G33 29.93F WCI 28
#GRASS VALLEY 1SN/A         38  33  82  SW20G28 29.86F WCI 28
#KENT DOT       N/A         36  28  72  SW16    N/A    WCI 26
#MAUPIN SCHOOL  N/A         44  35  70  W1      29.94F
#SHANIKO 5WSW   N/A         32  -1  24  SW14    N/A    WCI 22
#SHANIKO 4NW    N/A         33  32  96  SW21G29 29.83S WCI 21
#TYGH VALLEY 2NEN/A         42  36  79  N15     29.88F WCI 34
#WAPANITIA AIRPON/A         38  34  85  W12     29.93R WCI 30
#WASCO DOT      N/A         44  35  70  W15G28  N/A    WCI 37
#WASCO 5NE      N/A         39  34  82  W10     29.87F
$$

ORZ511-252110-
CENTRAL OREGON

CITY            SKY/WX      TMP DP  RH  WIND    PRES   REMARKS
BEND AIRPORT    CLOUDY      43  28  55  SW21G30 29.89F WCI 34
PRINEVILLE AP   CLOUDY      43  27  53  SW22G32 29.90F WCI 34
REDMOND AIRPORT CLOUDY      46  28  49  W16G28  29.86F WCI 39
#ASHWOOD SCHOOL N/A         42  31  65  S7G29   29.86F
#BEND 1SW       N/A         37  31  79  SW3     N/A
#BEND-AWBREY    N/A         40  31  70  W15     29.95F WCI 32
#BEND-KIM LN    N/A         41  31  67  SW18G41 29.90F WCI 32
#CULVER         N/A         40  31  70  SW16G31 29.80F WCI 32
#CULVER 8W      N/A         38  32  79  W10     29.88F
#LAKE BILLY CHINN/A         38  N/A N/A W14     29.98F WCI 30
#POWELL BUTTE   N/A         42  24  48  NW12    29.85F WCI 35
#PRINEVILLE     N/A         44  30  58  W2      30.09F
#PRINEVILLE 3N  N/A         43  30  60  W3      29.97F
#WARM SPRINGS   N/A         45  37  73  CALM    29.77F

$$


ORZ509-252110-
EAST SLOPES OF OREGON CASCADES

CITY            SKY/WX      TMP DP  RH  WIND    PRES   REMARKS
SISTERS AWOS    N/A         37  32  82  SW18G37 29.87S WCI 27
#BLUE BOX PASS  N/A         29  N/A N/A NW8     N/A
#CAMP SHERMAN   N/A         34  30  85  CALM    30.03F
#LA PINE DOT    N/A         39  27  62  SW13G35 N/A    WCI 31
#LA PINE 4NW    N/A         35  28  75  W6      30.13F
#LAVA BUTTE DOT N/A         34  27  75  SW6     N/A
#SISTERS ODOT   N/A         38  30  73  SW9     N/A
#SISTERS 3N     N/A         38  28  67  N3      29.91F
#SUNRIVER       N/A         35  31  85  SE5     30.05F
#TUMALO 3W      N/A         40  27  59  W17     29.84F WCI 31
#WANOGA BUTTE D N/A         26  24  92  W18G35  N/A    WCI 13

$$

ORZ044-252110-
LOWER COLUMBIA BASIN...OREGON

CITY            SKY/WX      TMP DP  RH  WIND    PRES   REMARKS
HERMISTON       MOCLDY      50  34  54  SW24G41 29.82F
#BOARDMAN SCHOOLN/A         51  36  56  W12     29.83F
#BOARDMAN 8SW   N/A         50  37  61  SW26    29.83F
#ECHO 8SW       N/A         50  34  54  CALM    29.85F
#I-84 EX 198 DOTN/A         48  27  44  NE30G37 N/A    WCI 39
#IONE SCHOOL    N/A         46  32  58  S16G30  29.88F WCI 39
#UMATILLA       N/A         50  33  52  SW22G35 29.74F
$$

ORZ507-252110-
NORTHERN FOOTHILLS OF THE BLUES

CITY            SKY/WX      TMP DP  RH  WIND    PRES   REMARKS
PENDLETON AIRPT CLOUDY      47  29  49  SW23G36 29.82F WCI 39
#ADAMS 3WNW     N/A         44  32  62  SW17G26 29.86F WCI 36
#ATHENA         N/A         42  29  60  SW9     29.90F
#CAYUSE         N/A         45  30  55  SW24G32 29.85F WCI 36
#HELIX SCHOOL   N/A         41  35  79  N15     29.87F WCI 33
#HELIX 3N       N/A         40  34  79  SW22    29.82F WCI 30
#HOLDMAN 5SE    N/A         45  35  68  SW22G38 29.82F WCI 37
#HOLDMAN 6E     N/A         39  38  96  SW15G26 29.65F WCI 31
#M-F GROVE ELEM N/A         46  26  45  S10G24  29.82F
#M-FREEWATER 5SEN/A         44  31  60  SW18G36 29.85S WCI 36
#PENDLETON DNTN N/A         48  26  42  SW7     N/A
#PDT AQUATIC CTRN/A         47  28  47  SW15    29.82F WCI 41
#PDT SUNRIDGE   N/A         47  31  53  W10     29.86S
#PENDLETON 6SE  N/A         44  30  58  SW12G29 29.85F WCI 38
#PENDLETON 7NW  N/A         47  33  58  SW17G33 31.63S WCI 40
#PILOT ROCK 1S  N/A         44  25  47  S15     29.86F WCI 37
#PILOT ROCK     N/A         43  30  60  CALM    29.87S
#TUTUILLA       N/A         41  28  59  SW14    29.90F WCI 33
#UMAPINE 2E     N/A         47  35  63  SW17G35 29.80F WCI 40

$$

ORZ508-252110-
SOUTHERN FOOTHILLS OF THE BLUES

CITY            SKY/WX      TMP DP  RH  WIND    PRES   REMARKS
#AJAX           N/A         39  26  59  NW25G43 29.98F WCI 28
#CONDON 5W      N/A         32  30  92  CALM    29.80F
#FOSSIL SCHOOL  N/A         37  33  85  W7      29.81F
#HEPPNER EOC    N/A         41  33  73  S16G39  29.85F WCI 33
#HEPPNER 4NE    N/A         38  32  79  SW13G24 29.91F WCI 30
#LEXINGTON 2SE  N/A         46  34  63  SW21G31 29.82F WCI 38
#MIKKALO        N/A         42  31  65  SW16G24 29.94F WCI 34
#OLEX 4N        N/A         44  36  73  SW23G30 29.82R WCI 35
#RUGGS 5NE      N/A         38  31  76  S14G24  30.01R WCI 30
#RUGGS 2SW      N/A         37  31  79  W22G30  29.95S WCI 26

$$

ORZ502-503-252110-
BLUE MOUNTAINS

CITY            SKY/WX      TMP DP  RH  WIND    PRES   REMARKS
MEACHAM         CLOUDY      36  24  61  VRB3    29.80F
#BATTLE MTN DOT N/A         32  20  61  S10     N/A
#GRANITE        N/A         30  16  55  NW2     29.53S
#HARDMAN 10S    N/A         30  28  92  S1      30.09F
#LADD CYN SMT   N/A         29  23  78  SE22    N/A    WCI 15
#LADD CREEK ODOTN/A         33  23  66  W8      N/A
#N POWDER DOT   N/A         N/A N/A N/A SE23    N/A
#PIKES PEAK     N/A         35  24  64  SW43G58 27.99S WCI 20
#SUMMERVILLE 5NWN/A         30  26  85  N7      27.80F
#TOLLGATE       N/A         25  24  96  W5      29.83F
#TROY SCHOOL    N/A         38  31  76  CALM    29.74F
#UKIAH          N/A         38  27  64  SW3     29.87F
#WESTON 4E      N/A         35  29  78  SW16G33 29.90F WCI 25
$$

ORZ505-252110-
JOHN DAY BASIN

CITY            SKY/WX      TMP DP  RH  WIND    PRES   REMARKS
JOHN DAY        CLOUDY      37  25  61  S20G29  29.90F WCI 27
#ANTELOPE 9ESE  N/A         46  33  60  SW8     N/A
#DAYVILLE SCHOOLN/A         42  23  46  S12     29.89F WCI 35
#MITCHELL 8NW   N/A         39  28  64  SW6     30.02F
#MONUMENT HS    N/A         42  24  48  E7      29.85F
#MT. VERNON 5SE N/A         37  24  59  SE5     29.83F
#SPRAY SCHOOL   N/A         44  N/A N/A SE1     N/A
$$

ORZ506-252110-
OCHOCO AND JOHN DAY HIGHLANDS

CITY            SKY/WX      TMP DP  RH  WIND    PRES   REMARKS
#HORSE RIDGE DO N/A         38  23  54  SW25G35 N/A    WCI 27
#KEYES SMT DOT  N/A         33  23  66  SW8     N/A
#PAULINA ODOT   N/A         37  24  59  SW16    N/A    WCI 28
#PRAIRIE CITY   N/A         36  21  54  CALM    30.10F
#SENECA         N/A         33  N/A N/A SW7     N/A
#SENECA 9NW     N/A         32  23  69  W2      30.06F
$$

ORZ049-252110-
GRANDE RONDE VALLEY

CITY            SKY/WX      TMP DP  RH  WIND    PRES   REMARKS
LA GRANDE       MOCLDY      33  22  63  S24G32  29.88F WCI 20
#COVE SCHOOL    N/A         36  25  64  S8      29.90F
#COVE 6NW       N/A         35  26  69  S7      29.99F
#ELGIN 3N       N/A         32  21  63  S22     29.83F WCI 19
#ELGIN 1E       N/A         34  25  69  S6      N/A
#IMBLER SCHOOL  N/A         31  25  78  S20G35  29.83F WCI 19
#ISLAND CITY 4N N/A         42  41  96  N1      29.96S
#LADD CYN DOT   N/A         33  25  72  SE21G33 N/A    WCI 21
#UNION 1S       N/A         35  25  66  S8      30.02F
$$

ORZ050-252110-
WALLOWA COUNTY

CITY            SKY/WX      TMP DP  RH  WIND    PRES   REMARKS
#ENTERPRISE HS  N/A         33  26  75  SE8     29.85F
#IMNAHA SCHOOL  N/A         39  23  52  SE20G35 29.89F WCI 29
#IMNAHA 10S     N/A         34  20  56  S10G29  29.89F
#JOSEPH 3N      N/A         30  20  66  E8      29.86F
#LOSTINE        N/A         38  23  54  W6      29.71F
#LOSTINE 3SE    N/A         37  24  59  SW7     29.85F
#MT HOWARD 8000 N/A         16  13  88  W22G40  29.61F WCI -2
#WALLOWA LAKE   N/A         29  24  81  SW3     29.81F
#WALLOWA SCHOOL N/A         39  25  57  NW1     29.80F



$$



USA.gov is the U.S. government's official web portal to all federal, state and local government web resources and services.